Location: Brad
(46.1333°N, 22.7833°E)
Time: 10:48:41
(UTC+00:00)

Cosmos 1814 Rocket - Pass Details

Date: 03 February 2023
Orbit: 743 x 787 km, 74.1° (Epoch: 20 March)

Event Time Altitude Azimuth Distance (km) Brightness Sun altitude
Rises 18:19:29 0° 337° (NNW) 3,285 7.6 -28.5°
Reaches altitude 10° 18:21:53 10° 336° (NNW) 2,355 6.8 -28.9°
Enters shadow 18:26:26 63° 313° (NW) 880 4.3 -29.6°
